This demonstration page uses our WeatherBlox Daily Observations layout. Learn more.

Left ArrowRight Arrow

34.74481, -87.66753

Hourly Observations for May 23, 2021

Temp ( °F °C ) Dew Point ( °F °C ) Humidity (%) Winds ( mph kmh ) Pressure ( in mb ) Visibility ( mi km ) Precip ( " mm )
12:53 am 00:53 Hazy 66 18.9 61 16.1 84 84 Calm 30.26 1025 6 10 0.00 0.00
1:42 am 01:42 Hazy 64 17.8 59 15 84 84 Calm 30.25 1024 2 2 0.00 0.00
1:50 am 01:50 Clear with Mist and Fog 64 18 61 16 88 88 Calm 30.25 1024 1 1 0.00 0.00
1:53 am 01:53 Clear with Mist and Fog 64 17.8 60 15.6 87 87 Calm 30.24 1024 1 2 0.00 0.00
1:56 am 01:56 Hazy 65 18.3 60 15.6 84 84 Calm 30.25 1024 3 5 0.00 0.00
2:26 am 02:26 Hazy 63 17.2 58 14.4 84 84 Calm 30.25 1024 2 3 0.00 0.00
2:37 am 02:37 Hazy 63 17.2 58 14.4 84 84 Calm 30.25 1024 1 1 0.00 0.00
2:53 am 02:53 Clear with Mist and Fog 63 17.2 59 15 87 87 Calm 30.24 1024 1 2 0.00 0.00
3:04 am 03:04 Clear with Fog 62 16.7 59 15 90 90 Calm 30.25 1025 1 1 0.00 0.00
3:29 am 03:29 Clear with Mist and Fog 62 16.7 58 14.4 86 86 Calm 30.25 1025 1 2 0.00 0.00
3:37 am 03:37 Clear with Fog 62 16.7 58 14.4 86 86 Calm 30.25 1025 1 1 0.00 0.00
3:53 am 03:53 Hazy 62 16.7 57 13.9 84 84 Calm 30.24 1024 1 1 0.00 0.00
3:59 am 03:59 Hazy 63 17.2 57 13.9 81 81 Calm 30.25 1024 3 4 0.00 0.00
4:06 am 04:06 Clear 62 16.7 58 14.4 86 86 Calm 30.25 1025 8 13 0.00 0.00
4:14 am 04:14 Clear with Mist and Fog 61 16.1 57 13.9 87 87 Calm 30.26 1025 1 1 0.00 0.00
4:18 am 04:18 Mostly Cloudy with Haze 62 16.7 57 13.9 84 84 Calm 30.25 1025 0 0 0.00 0.00
4:53 am 04:53 Mostly Cloudy with Fog 62 16.7 58 14.4 86 86 Calm 30.25 1024 0 0 0.00 0.00
5:18 am 05:18 Mostly Cloudy with Fog 60 15.6 56 13.3 86 86 Calm 30.27 1025 1 1 0.00 0.00
5:28 am 05:28 Mostly Cloudy with Fog 60 15.6 56 13.3 86 86 Calm 30.27 1025 0 0 0.00 0.00
5:53 am 05:53 Mostly Cloudy with Fog 60 15.6 56 13.3 86 86 Calm 30.26 1025 0 0 0.00 0.00
6:01 am 06:01 Mostly Cloudy with Fog 60 15.6 57 13.9 90 90 Calm 30.28 1025 N/A 0.00 0.00
6:11 am 06:11 Mostly Cloudy with Fog 61 16.1 57 13.9 87 87 Calm 30.28 1025 0 0 0.00 0.00
6:18 am 06:18 Mostly Cloudy with Mist and Fog 62 16.7 58 14.4 86 86 Calm 30.28 1026 1 2 0.00 0.00
6:25 am 06:25 Partly Cloudy with Mist and Fog 62 16.7 58 14.4 86 86 Calm 30.28 1026 3 5 0.00 0.00
6:53 am 06:53 Sunny with Mist and Fog 64 17.8 61 16.1 90 90 Calm 30.27 1025 5 8 0.00 0.00
7:53 am 07:53 Hazy 70 21.1 63 17.2 79 79 Calm 30.28 1025 6 10 0.00 0.00
8:53 am 08:53 Sunny 76 24.4 65 18.3 69 69 Calm 30.27 1025 8 13 0.00 0.00
9:53 am 09:53 Sunny 83 28.3 62 16.7 49 49 WNW 3 6 30.27 1025 10 16 0.00 0.00
10:53 am 10:53 Sunny 86 30 57 13.9 37 37 NNW 3 6 30.26 1025 10 16 0.00 0.00
11:53 am 11:53 Mostly Cloudy 85 29.4 57 13.9 39 39 Calm 30.24 1024 10 16 0.00 0.00
12:53 pm 12:53 Mostly Sunny 88 31.1 57 13.9 35 35 VRB 3 6 30.22 1023 10 16 0.00 0.00
1:53 pm 13:53 Sunny 88 31.1 56 13.3 34 34 VRB 3 6 30.19 1023 10 16 0.00 0.00
2:53 pm 14:53 Mostly Sunny 90 32.2 58 14.4 34 34 VRB 3 6 30.17 1022 10 16 0.00 0.00
3:53 pm 15:53 Mostly Cloudy 90 32.2 56 13.3 32 32 NNE 3 6 30.15 1021 10 16 0.00 0.00
4:53 pm 16:53 Mostly Cloudy 88 31.1 56 13.3 34 34 NE 3 6 30.15 1021 9 14 0.00 0.00
5:53 pm 17:53 Sunny 88 31.1 57 13.9 35 35 Calm 30.14 1021 10 16 0.00 0.00
6:53 pm 18:53 Sunny 84 28.9 64 17.8 51 51 Calm 30.15 1021 10 16 0.00 0.00
7:53 pm 19:53 Clear 77 25 63 17.2 62 62 Calm 30.15 1021 10 16 0.00 0.00
8:53 pm 20:53 Clear 74 23.3 62 16.7 67 67 Calm 30.16 1021 10 16 0.00 0.00
9:53 pm 21:53 Clear 72 22.2 61 16.1 68 68 Calm 30.17 1022 10 16 0.00 0.00
10:53 pm 22:53 Clear 69 20.6 60 15.6 73 73 Calm 30.16 1022 10 16 0.00 0.00
11:53 pm 23:53 Clear 70 21.1 62 16.7 76 76 Calm 30.16 1022 10 16 0.00 0.00

Powered by AerisWeather